sat.trackr.live / text

‹ back to catalog

COSMOS 2547 (705K)

NORAD 46805 · 2020-075A

PAYLOAD ACTIVE UNKNOWN

§ Identity

Operator
Country
CIS
Launch date
2020-10-25
Launch site
PLMSC
Launch vehicle
Mass (kg)
RCS (m²)

Purposes: earth_obs, nav

External: N2YO · Heavens-Above · Gunter

§ Orbital elements

Epoch: 2026-05-23T01:46:08.184576Z

Period
675.74 min
Inclination
64.5977°
Eccentricity
0.0008999
Mean motion
2.13100163 rev/d
Perigee alt
19,107.1 km
Apogee alt
19,153.0 km
Semi-major
25,508.2 km
B*
0.0000e+0
RAAN
193.3141°
Arg perigee
239.0049°
Mean anomaly
120.9752°
Rev number
4,337

§ Raw data

COSMOS 2547 (705K)1 46805U 20075A   26143.07370584  .00000026  00000+0  00000+0 0  99932 46805  64.5977 193.3141 0008999 239.0049 120.9752  2.13100163 43377

JSON: /api/v1/satellites/46805 · /tle

For live sub-satellite position, see the globe view (requires WebGL).

§ Visibility from observer

Set your observer location to see the next 7 days of passes ≥ 10°. The values pass through the URL so the page stays shareable.

No JS? Fill the form by hand. The geolocation button needs JavaScript.